TimePDT,TemperatureF,Dew PointF,Humidity,Sea Level PressureIn,VisibilityMPH,Wind Direction,Wind SpeedMPH,Gust SpeedMPH,PrecipitationIn,Events,Conditions,WindDirDegrees,DateUTC
12:52 AM,66.0,24.1,20,30.03,10.0,ESE,3.5,-,N/A,,Clear,110,2014-04-08 07:52:00
1:52 AM,66.0,25.0,21,30.02,10.0,Calm,Calm,-,N/A,,Clear,0,2014-04-08 08:52:00
2:52 AM,62.1,21.9,21,30.03,10.0,Calm,Calm,-,N/A,,Clear,0,2014-04-08 09:52:00
3:52 AM,60.1,19.9,21,30.02,10.0,NNW,5.8,-,N/A,,Clear,340,2014-04-08 10:52:00
4:52 AM,59.0,21.0,23,30.03,10.0,NNW,8.1,-,N/A,,Clear,340,2014-04-08 11:52:00
6:52 AM,61.0,25.0,25,30.07,10.0,SSE,4.6,-,N/A,,Clear,150,2014-04-08 13:52:00
7:52 AM,66.9,21.9,18,30.09,10.0,SSW,6.9,-,N/A,,Clear,210,2014-04-08 14:52:00
8:52 AM,72.0,21.0,15,30.10,10.0,SW,6.9,-,N/A,,Clear,220,2014-04-08 15:52:00
9:52 AM,78.1,21.9,12,30.11,10.0,SSW,3.5,-,N/A,,Clear,210,2014-04-08 16:52:00
10:52 AM,84.9,21.9,10,30.10,10.0,East,5.8,-,N/A,,Clear,80,2014-04-08 17:52:00
11:52 AM,88.0,26.1,11,30.09,10.0,Variable,5.8,-,N/A,,Clear,0,2014-04-08 18:52:00
12:52 PM,90.0,25.0,10,30.06,10.0,Calm,Calm,-,N/A,,Clear,0,2014-04-08 19:52:00
1:52 PM,91.9,21.0,8,30.04,10.0,ESE,4.6,-,N/A,,Clear,110,2014-04-08 20:52:00
2:52 PM,91.9,18.0,7,30.00,10.0,SSW,6.9,-,N/A,,Clear,210,2014-04-08 21:52:00
3:52 PM,93.0,15.1,6,29.98,10.0,Calm,Calm,-,N/A,,Clear,0,2014-04-08 22:52:00
4:52 PM,93.9,15.1,6,29.96,10.0,NE,3.5,-,N/A,,Clear,40,2014-04-08 23:52:00
5:52 PM,93.0,14.0,5,29.95,10.0,East,5.8,-,N/A,,Clear,100,2014-04-09 00:52:00
6:52 PM,89.1,24.1,9,29.94,10.0,SSE,3.5,-,N/A,,Clear,160,2014-04-09 01:52:00
7:52 PM,84.9,23.0,10,29.94,10.0,South,5.8,-,N/A,,Clear,180,2014-04-09 02:52:00
8:52 PM,79.0,24.1,13,29.96,10.0,Calm,Calm,-,N/A,,Clear,0,2014-04-09 03:52:00
9:52 PM,73.9,23.0,15,29.96,10.0,North,3.5,-,N/A,,Clear,360,2014-04-09 04:52:00
10:52 PM,78.1,18.0,10,29.96,10.0,NW,3.5,-,N/A,,Clear,320,2014-04-09 05:52:00
11:52 PM,72.0,23.0,16,29.97,10.0,Calm,Calm,-,N/A,,Clear,0,2014-04-09 06:52:00